Powrót do katalogu

EXPRESS AMU1

AktywnyŁącznośćGEO
NORAD 41191·PAYLOAD·🇷🇺 Russia

Wystrzelony Dec 24, 2015 z Baikonur Cosmodrome

Loading…

TLE

ŚwieżeSource: Space-Track

Epoka: Sep 14, 2026, 13:58 UTC

1 41191U 15082A   26257.58229437  .00000000  00000-0  00000-0 0  9994
2 41191   0.0207 168.4392 0002375   9.7472  61.0872  1.00269507 39169

Śledź EXPRESS AMU1 w czasie rzeczywistym z AllMySat

Download on the App Store